GAP2821 RPLL-RPMD

Flight info

Callsign GAP2821
Flight time 1h 25m
Altitude 35000
Route IPATA2R IPATA B462 MASBA W9A BN W9 RIMAR RIMAR2R
Aircraft A320/M-SDE3FGHIRWY/LB1

Departure

Time 2026-05-07 14:34
Airport Ninoy Aquino International Airport (RPLL)

Arrival

Time 2026-05-07 16:00
Airport Francisco Bangoy International Airport (RPMD)
Time Latitude Longitude Altitude Speed Heading
2026-05-07 13:31 14.51053 121.01407 84 ft 0 kts 231°
2026-05-07 14:14 14.51056 121.01410 84 ft 2 kts 231°
2026-05-07 14:15 14.51065 121.01422 84 ft 1 kts 231°
2026-05-07 14:15 14.51071 121.01430 84 ft 2 kts 223°
2026-05-07 14:15 14.51084 121.01437 84 ft 2 kts 197°
2026-05-07 14:15 14.51099 121.01440 84 ft 2 kts 173°
2026-05-07 14:16 14.51113 121.01435 84 ft 2 kts 150°
2026-05-07 14:16 14.51121 121.01430 84 ft 1 kts 136°
2026-05-07 14:16 14.51117 121.01434 84 ft 3 kts 136°
2026-05-07 14:16 14.51088 121.01465 84 ft 7 kts 134°
2026-05-07 14:17 14.51051 121.01504 84 ft 6 kts 134°
2026-05-07 14:17 14.51031 121.01524 84 ft 1 kts 134°
2026-05-07 14:17 14.51027 121.01528 84 ft 0 kts 135°
2026-05-07 14:22 14.51027 121.01529 83 ft 0 kts 135°
2026-05-07 14:22 14.51023 121.01533 83 ft 1 kts 135°
2026-05-07 14:23 14.51014 121.01541 83 ft 2 kts 136°
2026-05-07 14:23 14.51000 121.01556 84 ft 3 kts 135°
2026-05-07 14:23 14.50978 121.01578 83 ft 5 kts 136°
2026-05-07 14:23 14.50949 121.01607 84 ft 6 kts 135°
2026-05-07 14:24 14.50915 121.01642 83 ft 7 kts 135°
2026-05-07 14:24 14.50870 121.01662 84 ft 7 kts 204°
2026-05-07 14:24 14.50835 121.01617 84 ft 8 kts 240°
2026-05-07 14:24 14.50803 121.01559 83 ft 8 kts 240°
2026-05-07 14:25 14.50771 121.01502 84 ft 9 kts 239°
2026-05-07 14:25 14.50744 121.01453 83 ft 7 kts 240°
2026-05-07 14:25 14.50725 121.01419 84 ft 0 kts 240°
2026-05-07 14:27 14.50724 121.01417 84 ft 0 kts 240°
2026-05-07 14:27 14.50717 121.01405 84 ft 3 kts 240°
2026-05-07 14:27 14.50702 121.01377 83 ft 5 kts 240°
2026-05-07 14:28 14.50677 121.01332 83 ft 8 kts 239°
2026-05-07 14:28 14.50643 121.01270 83 ft 11 kts 240°
2026-05-07 14:28 14.50600 121.01195 84 ft 13 kts 240°
2026-05-07 14:28 14.50551 121.01106 84 ft 14 kts 240°
2026-05-07 14:29 14.50500 121.01015 84 ft 14 kts 240°
2026-05-07 14:29 14.50449 121.00922 84 ft 14 kts 240°
2026-05-07 14:29 14.50397 121.00829 83 ft 15 kts 240°
2026-05-07 14:29 14.50345 121.00736 84 ft 15 kts 240°
2026-05-07 14:30 14.50293 121.00641 84 ft 15 kts 240°
2026-05-07 14:30 14.50240 121.00546 83 ft 15 kts 240°
2026-05-07 14:30 14.50192 121.00459 84 ft 11 kts 240°
2026-05-07 14:30 14.50172 121.00423 83 ft 0 kts 240°
2026-05-07 14:31 14.50167 121.00415 83 ft 2 kts 240°
2026-05-07 14:31 14.50154 121.00391 83 ft 5 kts 240°
2026-05-07 14:32 14.50124 121.00359 84 ft 7 kts 187°
2026-05-07 14:32 14.50075 121.00380 84 ft 8 kts 150°
2026-05-07 14:32 14.50023 121.00414 84 ft 9 kts 133°
2026-05-07 14:32 14.50024 121.00447 84 ft 0 kts 58°
2026-05-07 14:33 14.50038 121.00470 84 ft 20 kts 59°
2026-05-07 14:33 14.50242 121.00843 84 ft 97 kts 60°
2026-05-07 14:34 14.50696 121.01648 105 ft 154 kts 61°
2026-05-07 14:34 14.51222 121.02615 627 ft 159 kts 62°
2026-05-07 14:34 14.51766 121.03622 1271 ft 163 kts 63°
2026-05-07 14:34 14.52315 121.04627 1951 ft 164 kts 62°
2026-05-07 14:35 14.52875 121.05640 2623 ft 163 kts 60°
2026-05-07 14:35 14.53429 121.06637 3148 ft 163 kts 60°
2026-05-07 14:35 14.54013 121.07676 3513 ft 174 kts 60°
2026-05-07 14:35 14.54640 121.08800 3823 ft 190 kts 60°
2026-05-07 14:36 14.55299 121.10048 4216 ft 204 kts 68°
2026-05-07 14:36 14.55379 121.11574 4431 ft 231 kts 109°
2026-05-07 14:36 14.54441 121.12986 4853 ft 251 kts 134°
2026-05-07 14:36 14.53082 121.14219 5272 ft 270 kts 138°
2026-05-07 14:37 14.51617 121.15502 5804 ft 283 kts 137°
2026-05-07 14:37 14.48683 121.18244 7304 ft 291 kts 134°
2026-05-07 14:37 14.47227 121.19676 8078 ft 294 kts 134°
2026-05-07 14:38 14.45751 121.21159 8760 ft 301 kts 134°
2026-05-07 14:38 14.44248 121.22678 9461 ft 307 kts 134°
2026-05-07 14:38 14.42726 121.24226 10193 ft 311 kts 135°
2026-05-07 14:38 14.41161 121.25816 10696 ft 324 kts 135°
2026-05-07 14:39 14.39515 121.27492 11029 ft 342 kts 135°
2026-05-07 14:39 14.37769 121.29268 11454 ft 356 kts 135°
2026-05-07 14:39 14.36001 121.31070 12138 ft 361 kts 136°
2026-05-07 14:39 14.34243 121.32861 12871 ft 363 kts 136°
2026-05-07 14:40 14.32422 121.34714 13607 ft 366 kts 136°
2026-05-07 14:40 14.30607 121.36561 14325 ft 369 kts 137°
2026-05-07 14:40 14.28787 121.38412 15032 ft 371 kts 137°
2026-05-07 14:40 14.26949 121.40283 15731 ft 374 kts 137°
2026-05-07 14:41 14.25094 121.42171 16423 ft 376 kts 137°
2026-05-07 14:41 14.23237 121.44061 17101 ft 378 kts 137°
2026-05-07 14:41 14.21374 121.45956 17764 ft 381 kts 137°
2026-05-07 14:41 14.19499 121.47863 18420 ft 383 kts 137°
2026-05-07 14:42 14.17590 121.49805 19072 ft 385 kts 137°
2026-05-07 14:42 14.15707 121.51720 19692 ft 388 kts 137°
2026-05-07 14:42 14.13764 121.53695 20312 ft 390 kts 137°
2026-05-07 14:42 14.11847 121.55643 20905 ft 392 kts 137°
2026-05-07 14:43 14.09920 121.57602 21482 ft 394 kts 137°
2026-05-07 14:43 14.07959 121.59595 22054 ft 397 kts 137°
2026-05-07 14:43 14.06011 121.61575 22598 ft 399 kts 137°
2026-05-07 14:43 14.04022 121.63596 23137 ft 401 kts 137°
2026-05-07 14:44 14.02049 121.65601 23654 ft 403 kts 137°
2026-05-07 14:44 14.00044 121.67650 24159 ft 406 kts 137°
2026-05-07 14:44 13.98045 121.69693 24645 ft 408 kts 137°
2026-05-07 14:44 13.96030 121.71747 25115 ft 410 kts 137°
2026-05-07 14:45 13.94003 121.73807 25568 ft 412 kts 137°
2026-05-07 14:45 13.91963 121.75879 26007 ft 414 kts 137°
2026-05-07 14:45 13.89919 121.77952 26427 ft 416 kts 137°
2026-05-07 14:45 13.87849 121.80047 26838 ft 419 kts 136°
2026-05-07 14:46 13.85861 121.82216 27233 ft 421 kts 133°
2026-05-07 14:46 13.83963 121.84491 27622 ft 423 kts 131°
2026-05-07 14:46 13.82058 121.86819 28002 ft 426 kts 131°
2026-05-07 14:46 13.80147 121.89162 28367 ft 428 kts 131°
2026-05-07 14:47 13.78240 121.91501 28723 ft 430 kts 131°
2026-05-07 14:47 13.76322 121.93852 29072 ft 432 kts 131°
2026-05-07 14:47 13.74389 121.96220 29416 ft 433 kts 131°
2026-05-07 14:47 13.72467 121.98574 29843 ft 433 kts 131°
2026-05-07 14:48 13.70538 122.00936 30316 ft 431 kts 131°
2026-05-07 14:48 13.68625 122.03278 30767 ft 429 kts 131°
2026-05-07 14:48 13.66733 122.05594 31190 ft 428 kts 130°
2026-05-07 14:48 13.64814 122.07941 31600 ft 427 kts 130°
2026-05-07 14:49 13.62910 122.10270 31993 ft 426 kts 130°
2026-05-07 14:49 13.61013 122.12590 32369 ft 425 kts 130°
2026-05-07 14:49 13.59118 122.14906 32732 ft 424 kts 130°
2026-05-07 14:49 13.57247 122.17192 33081 ft 423 kts 130°
2026-05-07 14:50 13.55352 122.19507 33388 ft 423 kts 130°
2026-05-07 14:50 13.53447 122.21834 33642 ft 424 kts 130°
2026-05-07 14:50 13.51553 122.24146 33878 ft 425 kts 130°
2026-05-07 14:50 13.49652 122.26468 34117 ft 426 kts 130°
2026-05-07 14:51 13.47770 122.28764 34347 ft 427 kts 130°
2026-05-07 14:51 13.45851 122.31105 34573 ft 428 kts 130°
2026-05-07 14:51 13.43926 122.33453 34792 ft 428 kts 130°
2026-05-07 14:51 13.42008 122.35791 34891 ft 430 kts 130°
2026-05-07 14:52 13.38160 122.40480 34902 ft 430 kts 130°
2026-05-07 14:52 13.34322 122.45155 34905 ft 430 kts 130°
2026-05-07 14:53 13.30484 122.49828 34906 ft 430 kts 130°
2026-05-07 14:53 13.26645 122.54499 34906 ft 430 kts 130°
2026-05-07 14:54 13.22797 122.59180 34906 ft 430 kts 130°
2026-05-07 14:54 13.18958 122.63846 34906 ft 430 kts 130°
2026-05-07 14:55 13.15093 122.68558 34906 ft 430 kts 130°
2026-05-07 14:55 13.11268 122.73225 34906 ft 430 kts 130°
2026-05-07 14:56 13.07408 122.77921 34905 ft 431 kts 131°
2026-05-07 14:56 13.03545 122.82610 34905 ft 433 kts 131°
2026-05-07 14:57 12.99671 122.87308 34905 ft 434 kts 131°
2026-05-07 14:57 12.95767 122.92035 34905 ft 436 kts 131°
2026-05-07 14:58 12.91835 122.96796 34907 ft 442 kts 131°
2026-05-07 14:58 12.87823 123.01637 34908 ft 453 kts 131°
2026-05-07 14:59 12.83717 123.06571 34906 ft 456 kts 131°
2026-05-07 14:59 12.79626 123.11503 34906 ft 456 kts 130°
2026-05-07 15:00 12.75521 123.16462 34906 ft 456 kts 130°
2026-05-07 15:00 12.71448 123.21382 34906 ft 456 kts 130°
2026-05-07 15:01 12.67334 123.26350 34906 ft 456 kts 130°
2026-05-07 15:01 12.63266 123.31261 34906 ft 456 kts 130°
2026-05-07 15:02 12.59161 123.36212 34906 ft 456 kts 130°
2026-05-07 15:02 12.55061 123.41157 34906 ft 456 kts 130°
2026-05-07 15:03 12.50981 123.46079 34906 ft 457 kts 130°
2026-05-07 15:03 12.46868 123.51039 34906 ft 457 kts 130°
2026-05-07 15:04 12.42770 123.55950 34905 ft 457 kts 132°
2026-05-07 15:04 12.38289 123.60543 34905 ft 456 kts 139°
2026-05-07 15:05 12.33335 123.64552 34905 ft 456 kts 145°
2026-05-07 15:05 12.27969 123.67959 34906 ft 456 kts 152°
2026-05-07 15:06 12.22412 123.71046 34906 ft 456 kts 152°
2026-05-07 15:06 12.16857 123.74109 34906 ft 456 kts 152°
2026-05-07 15:07 12.11320 123.77161 34906 ft 456 kts 152°
2026-05-07 15:07 12.05738 123.80236 34906 ft 456 kts 152°
2026-05-07 15:08 12.00188 123.83294 34906 ft 456 kts 152°
2026-05-07 15:08 11.94629 123.86355 34906 ft 456 kts 152°
2026-05-07 15:09 11.89073 123.89413 34906 ft 456 kts 152°
2026-05-07 15:09 11.83522 123.92451 34906 ft 456 kts 152°
2026-05-07 15:10 11.77933 123.95515 34906 ft 456 kts 152°
2026-05-07 15:10 11.72388 123.98559 34906 ft 456 kts 152°
2026-05-07 15:11 11.66815 124.01620 34906 ft 456 kts 152°
2026-05-07 15:11 11.61268 124.04666 34906 ft 456 kts 152°
2026-05-07 15:12 11.55669 124.07740 34906 ft 456 kts 152°
2026-05-07 15:12 11.50128 124.10780 34906 ft 456 kts 152°
2026-05-07 15:13 11.44556 124.13837 34906 ft 456 kts 152°
2026-05-07 15:13 11.38940 124.16915 34906 ft 456 kts 152°
2026-05-07 15:14 11.33397 124.19954 34906 ft 456 kts 152°
2026-05-07 15:14 11.27797 124.23023 34906 ft 456 kts 152°
2026-05-07 15:15 11.22209 124.26084 34906 ft 456 kts 152°
2026-05-07 15:15 11.16621 124.29145 34896 ft 456 kts 152°
2026-05-07 15:16 11.11026 124.32210 34888 ft 456 kts 152°
2026-05-07 15:16 11.05436 124.35258 34883 ft 456 kts 152°
2026-05-07 15:17 10.99825 124.38272 34882 ft 456 kts 152°
2026-05-07 15:17 10.94211 124.41290 34881 ft 456 kts 152°
2026-05-07 15:18 10.88609 124.44308 34881 ft 456 kts 152°
2026-05-07 15:18 10.82991 124.47323 34880 ft 457 kts 152°
2026-05-07 15:19 10.77390 124.50335 34881 ft 457 kts 152°
2026-05-07 15:19 10.71790 124.53355 34881 ft 457 kts 152°
2026-05-07 15:20 10.66202 124.56382 34882 ft 457 kts 152°
2026-05-07 15:20 10.60583 124.59431 34880 ft 457 kts 152°
2026-05-07 15:21 10.54958 124.62483 34882 ft 457 kts 152°
2026-05-07 15:21 10.49395 124.65501 34881 ft 456 kts 152°
2026-05-07 15:22 10.43810 124.68558 34880 ft 457 kts 152°
2026-05-07 15:22 10.38225 124.71603 34881 ft 457 kts 152°
2026-05-07 15:23 10.32637 124.74637 34881 ft 457 kts 152°
2026-05-07 15:23 10.27020 124.77679 34881 ft 457 kts 152°
2026-05-07 15:24 10.21440 124.80700 34882 ft 457 kts 152°
2026-05-07 15:24 10.15845 124.83729 34882 ft 456 kts 152°
2026-05-07 15:25 10.10249 124.86757 34882 ft 456 kts 152°
2026-05-07 15:25 10.04627 124.89796 34881 ft 455 kts 152°
2026-05-07 15:26 9.99067 124.92802 34881 ft 454 kts 152°
2026-05-07 15:26 9.93497 124.95812 34881 ft 453 kts 152°
2026-05-07 15:27 9.87937 124.98813 34881 ft 453 kts 152°
2026-05-07 15:27 9.82484 125.01746 34882 ft 452 kts 152°
2026-05-07 15:28 9.76946 125.04731 34882 ft 452 kts 152°
2026-05-07 15:28 9.71410 125.07709 34881 ft 451 kts 152°
2026-05-07 15:29 9.66045 125.10601 34882 ft 451 kts 152°
2026-05-07 15:29 9.60546 125.13562 34881 ft 451 kts 152°
2026-05-07 15:30 9.55006 125.16512 34881 ft 452 kts 153°
2026-05-07 15:30 9.53464 125.17332 34881 ft 452 kts 153°
2026-05-07 15:31 9.49113 125.19647 34881 ft 452 kts 153°
2026-05-07 15:31 9.43556 125.22607 34881 ft 451 kts 153°
2026-05-07 15:32 9.38023 125.25555 34881 ft 452 kts 153°
2026-05-07 15:32 9.32504 125.28497 34881 ft 451 kts 153°
2026-05-07 15:33 9.26967 125.31446 34881 ft 452 kts 153°
2026-05-07 15:33 9.21413 125.34405 34829 ft 453 kts 153°
2026-05-07 15:34 9.18619 125.35892 34087 ft 457 kts 153°
2026-05-07 15:34 9.15827 125.37380 33314 ft 457 kts 153°
2026-05-07 15:34 9.13022 125.38873 32560 ft 457 kts 153°
2026-05-07 15:34 9.10236 125.40358 31810 ft 456 kts 153°
2026-05-07 15:35 9.07441 125.41846 31168 ft 453 kts 153°
2026-05-07 15:35 9.04695 125.43308 30730 ft 445 kts 153°
2026-05-07 15:35 9.01969 125.44757 30283 ft 439 kts 152°
2026-05-07 15:35 8.99272 125.46177 29832 ft 433 kts 154°
2026-05-07 15:36 8.96552 125.47349 29388 ft 428 kts 160°
2026-05-07 15:36 8.93733 125.48219 28932 ft 424 kts 166°
2026-05-07 15:36 8.90856 125.48776 28462 ft 420 kts 172°
2026-05-07 15:36 8.87987 125.49106 28031 ft 415 kts 174°
2026-05-07 15:37 8.85139 125.49387 27600 ft 411 kts 174°
2026-05-07 15:37 8.82292 125.49663 27165 ft 407 kts 174°
2026-05-07 15:37 8.79507 125.49937 26740 ft 403 kts 174°
2026-05-07 15:37 8.76761 125.50212 26321 ft 399 kts 174°
2026-05-07 15:38 8.74000 125.50491 25895 ft 396 kts 174°
2026-05-07 15:38 8.71290 125.50766 25478 ft 392 kts 174°
2026-05-07 15:38 8.68594 125.51041 25059 ft 389 kts 174°
2026-05-07 15:38 8.65900 125.51316 24637 ft 386 kts 174°
2026-05-07 15:39 8.63246 125.51588 24221 ft 384 kts 174°
2026-05-07 15:39 8.60598 125.51860 23800 ft 381 kts 174°
2026-05-07 15:39 8.57988 125.52127 23385 ft 378 kts 175°
2026-05-07 15:39 8.55382 125.52393 22965 ft 375 kts 175°
2026-05-07 15:40 8.52824 125.52652 22551 ft 373 kts 175°
2026-05-07 15:40 8.50250 125.52893 22134 ft 371 kts 175°
2026-05-07 15:40 8.47688 125.53117 21714 ft 368 kts 176°
2026-05-07 15:40 8.45158 125.53338 21296 ft 366 kts 176°
2026-05-07 15:41 8.42623 125.53561 20873 ft 364 kts 176°
2026-05-07 15:41 8.40094 125.53785 20450 ft 362 kts 176°
2026-05-07 15:41 8.37613 125.54007 20034 ft 360 kts 176°
2026-05-07 15:41 8.35112 125.54230 19613 ft 358 kts 176°
2026-05-07 15:42 8.32679 125.54449 19203 ft 356 kts 176°
2026-05-07 15:42 8.30206 125.54671 18784 ft 354 kts 176°
2026-05-07 15:42 8.27774 125.54890 18375 ft 352 kts 176°
2026-05-07 15:42 8.25361 125.55106 17967 ft 350 kts 176°
2026-05-07 15:43 8.22928 125.55325 17557 ft 348 kts 176°
2026-05-07 15:43 8.20551 125.55539 17155 ft 346 kts 176°
2026-05-07 15:43 8.18174 125.55753 16749 ft 345 kts 176°
2026-05-07 15:43 8.15770 125.55970 16338 ft 343 kts 176°
2026-05-07 15:44 8.13433 125.56181 15934 ft 342 kts 177°
2026-05-07 15:44 8.11073 125.56393 15525 ft 340 kts 177°
2026-05-07 15:44 8.08707 125.56607 15115 ft 339 kts 177°
2026-05-07 15:44 8.06387 125.56817 14712 ft 337 kts 177°
2026-05-07 15:45 8.04063 125.57027 14306 ft 336 kts 177°
2026-05-07 15:45 8.01736 125.57235 13899 ft 335 kts 177°
2026-05-07 15:45 7.99442 125.57441 13497 ft 333 kts 177°
2026-05-07 15:45 7.97118 125.57700 13101 ft 333 kts 174°
2026-05-07 15:46 7.92624 125.58594 12304 ft 331 kts 169°
2026-05-07 15:46 7.90388 125.59097 11897 ft 331 kts 169°
2026-05-07 15:46 7.88130 125.59606 11491 ft 330 kts 169°
2026-05-07 15:47 7.85904 125.60104 11097 ft 328 kts 169°
2026-05-07 15:47 7.83694 125.60599 10710 ft 326 kts 169°
2026-05-07 15:47 7.81498 125.61090 10327 ft 324 kts 169°
2026-05-07 15:47 7.79332 125.61576 10132 ft 314 kts 169°
2026-05-07 15:48 7.77268 125.62041 10079 ft 299 kts 169°
2026-05-07 15:48 7.75268 125.62491 10022 ft 286 kts 169°
2026-05-07 15:48 7.73364 125.62918 9777 ft 284 kts 170°
2026-05-07 15:48 7.71440 125.63348 9456 ft 282 kts 169°
2026-05-07 15:49 7.69541 125.63773 9147 ft 280 kts 169°
2026-05-07 15:49 7.67646 125.64198 8842 ft 277 kts 169°
2026-05-07 15:49 7.65798 125.64612 8545 ft 275 kts 169°
2026-05-07 15:49 7.63940 125.65027 8247 ft 272 kts 169°
2026-05-07 15:50 7.62089 125.65449 7950 ft 270 kts 169°
2026-05-07 15:50 7.60269 125.65868 7660 ft 267 kts 169°
2026-05-07 15:50 7.58490 125.66272 7374 ft 265 kts 169°
2026-05-07 15:50 7.56701 125.66676 7087 ft 262 kts 169°
2026-05-07 15:51 7.54936 125.67072 6803 ft 260 kts 169°
2026-05-07 15:51 7.53165 125.67469 6517 ft 258 kts 169°
2026-05-07 15:51 7.52015 125.67727 6331 ft 256 kts 169°
2026-05-07 15:51 7.49709 125.68243 5956 ft 254 kts 169°
2026-05-07 15:52 7.47990 125.68627 5675 ft 252 kts 169°
2026-05-07 15:52 7.46285 125.69009 5398 ft 250 kts 169°
2026-05-07 15:52 7.44603 125.69385 5126 ft 246 kts 169°
2026-05-07 15:52 7.42960 125.69752 4861 ft 242 kts 169°
2026-05-07 15:53 7.41342 125.70114 4604 ft 238 kts 169°
2026-05-07 15:53 7.39738 125.70473 4346 ft 234 kts 169°
2026-05-07 15:53 7.38161 125.70825 4095 ft 230 kts 169°
2026-05-07 15:53 7.36627 125.71169 4006 ft 224 kts 169°
2026-05-07 15:54 7.35093 125.71511 3999 ft 226 kts 169°
2026-05-07 15:54 7.33568 125.71853 3996 ft 226 kts 168°
2026-05-07 15:54 7.32050 125.72281 3801 ft 229 kts 164°
2026-05-07 15:54 7.30530 125.72773 3510 ft 227 kts 163°
2026-05-07 15:55 7.29059 125.73257 3239 ft 224 kts 163°
2026-05-07 15:55 7.27605 125.73735 2971 ft 217 kts 163°
2026-05-07 15:55 7.26197 125.74196 2712 ft 208 kts 163°
2026-05-07 15:55 7.24852 125.74635 2474 ft 202 kts 163°
2026-05-07 15:56 7.23537 125.75064 2337 ft 192 kts 163°
2026-05-07 15:56 7.22237 125.75224 2044 ft 186 kts 192°
2026-05-07 15:56 7.21189 125.74635 2003 ft 167 kts 221°
2026-05-07 15:56 7.20447 125.73828 2001 ft 148 kts 229°
2026-05-07 15:57 7.19817 125.73042 1980 ft 142 kts 230°
2026-05-07 15:57 7.19190 125.72277 1818 ft 140 kts 229°
2026-05-07 15:57 7.18582 125.71561 1645 ft 140 kts 228°
2026-05-07 15:57 7.17948 125.70828 1464 ft 139 kts 227°
2026-05-07 15:58 7.17309 125.70091 1281 ft 139 kts 227°
2026-05-07 15:58 7.16671 125.69354 1094 ft 138 kts 228°
2026-05-07 15:58 7.16043 125.68627 910 ft 138 kts 227°
2026-05-07 15:58 7.15408 125.67897 741 ft 138 kts 228°
2026-05-07 15:59 7.14785 125.67175 540 ft 137 kts 227°
2026-05-07 15:59 7.14160 125.66445 377 ft 137 kts 228°
2026-05-07 15:59 7.13535 125.65720 188 ft 137 kts 228°
2026-05-07 15:59 7.12939 125.65032 104 ft 119 kts 228°
2026-05-07 16:00 7.12505 125.64526 104 ft 69 kts 229°
2026-05-07 16:00 7.12301 125.64288 104 ft 20 kts 226°
2026-05-07 16:00 7.12251 125.64227 104 ft 10 kts 251°
2026-05-07 16:00 7.12222 125.64188 104 ft 7 kts 118°
2026-05-07 16:01 7.12258 125.64241 104 ft 10 kts 45°
2026-05-07 16:01 7.12308 125.64295 104 ft 10 kts 48°
2026-05-07 16:01 7.12360 125.64354 104 ft 11 kts 48°
2026-05-07 16:01 7.12413 125.64416 104 ft 11 kts 48°
2026-05-07 16:02 7.12470 125.64480 104 ft 11 kts 48°
2026-05-07 16:02 7.12517 125.64536 104 ft 10 kts 50°
2026-05-07 16:02 7.12566 125.64573 104 ft 6 kts 332°
2026-05-07 16:02 7.12602 125.64530 104 ft 8 kts 317°
2026-05-07 16:03 7.12650 125.64489 104 ft 9 kts 319°
2026-05-07 16:03 7.12704 125.64445 104 ft 10 kts 339°
2026-05-07 16:03 7.12761 125.64476 104 ft 9 kts 51°
2026-05-07 16:03 7.12801 125.64525 104 ft 7 kts 49°
2026-05-07 16:04 7.12838 125.64566 104 ft 8 kts 50°
2026-05-07 16:04 7.12868 125.64602 104 ft 6 kts 49°
2026-05-07 16:04 7.12898 125.64637 104 ft 6 kts 49°
2026-05-07 16:04 7.12940 125.64645 104 ft 6 kts 330°
2026-05-07 16:05 7.12971 125.64618 104 ft 5 kts 318°
2026-05-07 16:05 7.12987 125.64603 104 ft 1 kts 319°
2026-05-07 16:05 7.12991 125.64600 104 ft 0 kts 319°